This is the latest recevied weather packets stored in our database for station/object KG5TTF. If no packets are shown the sender has not sent any weather packets the latest 10 day(s).
| Time | Temp. | Humidity | Pressure | Rain* | Wind** | Luminosity | Snow |
|---|---|---|---|---|---|---|---|
| 1778167872 | 8.33° C | 49% | 1022.1 hPa | 1.27 mm | - | 559 W/m² | - |
| 1778167568 | 7.78° C | 49% | 1022.1 hPa | 3.05 mm | - | 546 W/m² | - |
| 1778167264 | 7.78° C | 49% | 1021.8 hPa | 3.56 mm | - | 529 W/m² | - |
| 1778166960 | 7.78° C | 49% | 1021.6 hPa | 1.78 mm | - | 513 W/m² | - |
| 1778166657 | 7.78° C | 49% | 1021.8 hPa | 1.27 mm | - | 496 W/m² | - |
| 1778166354 | 7.22° C | 50% | 1021.8 hPa | 1.27 mm | - | 478 W/m² | - |
| 1778166051 | 7.22° C | 50% | 1021.9 hPa | 0 mm | - | 460 W/m² | - |
| 1778165746 | 7.22° C | 49% | 1021.8 hPa | 0 mm | - | 443 W/m² | - |
| 1778165444 | 6.67° C | 51% | 1021.5 hPa | 0 mm | - | 425 W/m² | - |
| 1778165140 | 6.11° C | 51% | 1021.8 hPa | 0 mm | - | 407 W/m² | - |
| 1778164838 | 6.11° C | 51% | 1021.8 hPa | 0 mm | - | 61 W/m² | - |
| 1778164535 | 5.56° C | 50% | 1021.9 hPa | 0 mm | - | 60 W/m² | - |
| 1778164233 | 5.56° C | 50% | 1021.6 hPa | 0 mm | - | 58 W/m² | - |
| 1778163937 | 5.56° C | 50% | 1021.6 hPa | 0 mm | - | 58 W/m² | - |
| 1778163625 | 5.56° C | 48% | 1021.6 hPa | 0 mm | - | 58 W/m² | - |
| 1778163321 | 5.56° C | 49% | 1021.9 hPa | 0 mm | - | 57 W/m² | - |
| 1778163018 | 5° C | 48% | 1021.8 hPa | 0 mm | - | 57 W/m² | - |
| 1778162714 | 5° C | 49% | 1021.6 hPa | 0 mm | - | 58 W/m² | - |
| 1778162406 | 5° C | 48% | 1022 hPa | 0 mm | - | 55 W/m² | - |
| 1778162103 | 4.44° C | 49% | 1021.8 hPa | 0 mm | - | 53 W/m² | - |
| 1778161800 | 4.44° C | 49% | 1021.8 hPa | 0 mm | - | 50 W/m² | - |
| 1778161496 | 3.89° C | 51% | 1021.6 hPa | 0 mm | - | 49 W/m² | - |
| 1778161192 | 3.89° C | 50% | 1021.6 hPa | 0 mm | - | 47 W/m² | - |
| 1778160888 | 3.89° C | 50% | 1021.5 hPa | 0 mm | - | 45 W/m² | - |
| 1778160587 | 3.89° C | 50% | 1021.5 hPa | 0 mm | - | 44 W/m² | - |
* Rain latest hour (hover to see other rain measurements)
** Current wind speed in m/s (hover to see current wind gust speed)